User: anonymous   Login
Location: Unspecified
(0.0000°N, 0.0000°E)
Time: 09:22:09
(UTC+00:00)
Language:

P83-1 Hilat - Orbit

View from above orbital plane
View from above orbital plane
View from above satellite
View from above satellite

Ground track
Ground track

The orbit data is extracted from the following two-line orbital elements,

1 14154U 83063A   18051.71135866 +.00000097 +00000-0 +27420-4 0  9992
2 14154 082.0235 098.2234 0041890 115.4551 024.1084 14.36332298811199
Epoch (UTC): 20 February 2018 17:04:21
Eccentricity: 0.0041890
inclination: 82.0235°
perigee height: 741 km
apogee height: 800 km
right ascension of ascending node: 98.2234°
argument of perigee: 115.4551°
revolutions per day: 14.36332298
mean anomaly at epoch: 24.1084°
orbit number at epoch: 81119

The dashed part of the orbit path shows where the satellite is in the earth's shadow,  

DLR